This demonstration page uses our WeatherBlox Daily Observations layout. Learn more.

Left ArrowRight Arrow

39.92423, -83.80882

Hourly Observations for March 28, 2022

Temp ( °F °C ) Dew Point ( °F °C ) Humidity (%) Winds ( mph kmh ) Pressure ( in mb ) Visibility ( mi km ) Precip ( " mm )
12:56 am 00:56 Clear 23 -5 15 -9.4 72 72 NW 9 15 30.18 1022 10 16 0.00 0.00
1:56 am 01:56 Clear 22 -5.6 14 -10 71 71 NW 8 13 30.18 1022 10 16 0.00 0.00
2:56 am 02:56 Clear 21 -6.1 14 -10 74 74 NW 8 13 30.18 1022 10 16 0.00 0.00
3:56 am 03:56 Clear 21 -6.1 13 -10.6 71 71 NW 9 15 30.18 1022 10 16 0.00 0.00
4:56 am 04:56 Clear 19 -7.2 12 -11.1 74 74 NNW 7 11 30.19 1022 10 16 0.00 0.00
5:56 am 05:56 Clear 19 -7.2 13 -10.6 77 77 WNW 6 9 30.19 1022 10 16 0.00 0.00
6:56 am 06:56 Clear 17 -8.3 13 -10.6 84 84 W 5 7 30.20 1023 10 16 0.00 0.00
7:56 am 07:56 Sunny 19 -7.2 14 -10 81 81 WSW 6 9 30.22 1024 10 16 0.00 0.00
8:56 am 08:56 Sunny 24 -4.4 15 -9.4 68 68 W 10 17 30.24 1024 10 16 0.00 0.00
9:56 am 09:56 Sunny 27 -2.8 14 -10 58 58 WNW 13 20 30.25 1024 10 16 0.00 0.00
10:56 am 10:56 Mostly Cloudy 29 -1.7 16 -8.9 58 58 NW 16 26 30.27 1025 10 16 0.00 0.00
11:56 am 11:56 Mostly Cloudy 31 -0.6 16 -8.9 54 54 NNW 12 19 30.27 1025 10 16 0.00 0.00
12:56 pm 12:56 Mostly Cloudy 32 0 16 -8.9 52 52 NW 13 20 30.27 1025 10 16 0.00 0.00
1:56 pm 13:56 Mostly Cloudy 33 0.6 14 -10 45 45 WNW 18 30 30.27 1025 10 16 0.00 0.00
2:56 pm 14:56 Partly Cloudy 33 0.6 13 -10.6 43 43 NW 14 22 30.27 1025 10 16 0.00 0.00
3:56 pm 15:56 Sunny 35 1.7 13 -10.6 40 40 NNW 17 28 30.26 1025 10 16 0.00 0.00
4:56 pm 16:56 Sunny 35 1.7 13 -10.6 40 40 NNW 13 20 30.26 1025 10 16 0.00 0.00
5:56 pm 17:56 Sunny 34 1.1 13 -10.6 42 42 N 14 22 30.26 1025 10 16 0.00 0.00
6:56 pm 18:56 Sunny 33 0.6 12 -11.1 42 42 NNW 8 13 30.27 1025 10 16 0.00 0.00
7:56 pm 19:56 Clear 30 -1.1 15 -9.4 54 54 N 7 11 30.27 1025 10 16 0.00 0.00
8:56 pm 20:56 Clear 28 -2.2 14 -10 56 56 N 5 7 30.29 1026 10 16 0.00 0.00
9:56 pm 21:56 Clear 28 -2.2 14 -10 56 56 Calm 30.29 1026 10 16 0.00 0.00
10:56 pm 22:56 Clear 26 -3.3 15 -9.4 63 63 Calm 30.30 1026 10 16 0.00 0.00
11:56 pm 23:56 Clear 23 -5 16 -8.9 74 74 E 3 6 30.31 1026 10 16 0.00 0.00

Powered by AerisWeather